Terminal Aerodrome Forecast
Issued by NWS Milwaukee/Sullivan, WI

Home | Current Version | Previous Version | Text Only | Print | Product List | Glossary On
Versions: 1 2 3 4 5 6 7 8 9 10 11 12 13 14 15 16 17 18 19 20 21 22 23 24 25 26 27 28 29 30 31 32 33 34 35 36 37 38 39 40 41 42 43 44 45 46 47 48 49 50
000
FTUS43 KMKX 280831 AAA
TAFMSN
TAF AMD
KMSN 280831Z 2809/2906 00000KT P6SM SCT060 OVC100
     FM281000 15004KT 3SM -SN BKN020 OVC060
     FM281200 16006KT P6SM OVC020
     FM281300 16007KT P6SM OVC060
     FM282000 17008KT P6SM OVC020
     FM282200 17007KT P6SM OVC010=

USA.gov is the U.S. government's official web portal to all federal, state and local government web resources and services.